Location: Newark
(34.9500°N, 139.9667°E)
Time: 03:41:38
(UTC+00:00)

Transit 2A - Pass Details

Date: 14 December 2019
Orbit: 601 x 957 km, 66.7° (Epoch: 17 January)

Event Time Altitude Azimuth Distance (km) Brightness Sun altitude
Rises 19:33:01 0° 186° (S) 3,171 9.3 -25.3°
Reaches altitude 10° 19:35:37 10° 178° (S) 2,192 8.5 -24.7°
Maximum altitude 19:40:08 37° 112° (ESE) 1,049 7.2 -23.8°
Drops below altitude 10° 19:44:20 10° 45° (NE) 2,032 8.6 -23.0°
Sets 19:46:39 0° 37° (NE) 2,909 9.3 -22.5°
